Hourly Data Report for March 10, 2003

SHERBROOKE A
QUEBEC

45°26'00.000" N
71°41'00.000" W
241.40 m
7028124
71610
YSC

Download Data

Hourly Data (March 2003)
Hourly Data Report for March 10, 2003
TIME
LST
Temp Definition
°C
Dew Point Definition
°C
Rel Hum Definition
%
Precip. Amount Definition
mm

Wind Dir Definition
10's deg

Wind Spd Definition
km/h
Visibility Definition
km
Stn Press Definition
kPa
Hmdx Definition


Wind Chill Definition


Weather Definition


00:00 -24.6 -28.4 71     0 15.0 98.15      
01:00 -24.6 -30.5 58     0 9.7 98.13      
02:00 -24.6 -29.8 62   21 4 15.0 98.04   -29  
03:00 -18.5 -23.3 66   22 11 15.0 97.98   -26  
04:00 -18.3 -23.4 64   23 15 15.0 97.95   -27  
05:00 -16.2 -22.4 59   21 11 15.0 97.94   -23  
06:00 -17.4 -23.4 59   14 6 15.0 97.91   -22  
07:00 -17.7 -23.5 60   17 4 12.9 97.97   -21  
08:00 -15.6 -21.0 63   21 15 4.0 98.03   -24 Snow Showers
09:00 -14.2 -18.9 67   25 19 3.2 98.06   -23 Snow Showers
10:00 -14.3 -20.9 57   27 33 12.9 98.11   -26 Snow Showers
11:00 -14.2 -20.7 58   25 30 3.2 98.16   -25 Snow Showers
12:00 -14.2 -22.1 51   25 35 19.3 98.17   -26 Mostly Cloudy
13:00 -14.6 -21.7 55   25 32 12.9 98.21   -26 Snow Showers
14:00 -14.8 -22.3 53   24 24 19.3 98.27   -25 Mostly Cloudy
15:00 -14.8 -22.4 52   25 32 19.3 98.32   -26 Snow Showers
16:00 -15.3 -24.5 45   26 32 24.1 98.37   -27 Mostly Cloudy
17:00 -15.6 -25.8 41   25 26 24.1 98.45   -26 Mainly Clear
18:00 -16.2 -25.7 44   25 17 15.0 98.51   -25  
19:00 -17.4 -26.3 46   21 7 15.0 98.55   -23  
20:00 -17.6 -26.1 47   20 9 15.0 98.54   -24  
21:00 -18.0 -25.9 50   19 7 15.0 98.57   -23  
22:00 -19.0 -26.2 53   21 7 15.0 98.59   -24  
23:00 -16.9 -24.8 50   21 11 15.0 98.59   -24  

Notes on Data Quality.

Legend

  • E = Estimated
  • M = Missing
  • NA = Not Available*
  • [empty] = Indicates an unobserved value
Date modified: